[[{"header":{"parameterUnit":"m.s-1","parameterCategory":1,"la1":30.2991,"la2":30.254,"lo1":-89.0895,"lo2":-89.0444,"dy":0.0017,"dx":0.0017,"nx":28,"ny":28,"refTime":"2023-09-13T21:00:00:Z","depth":0,"parameterNumber":2,"parameterNumberName":"U-component_of_WINDS"},"data":[0,0,0,0,0,0,0,0,0,0,0,0,0,0,0,0,0,0,0,0,0,0,0,0,0,0,0,0,0,0,0,0,0,0,0,0,0,0,0,0,0,0,0,0,0,0,0,0,0,0,0,0,0,0,0,0,0,0,-1.2024,-1.2023,0,-1.1967,-1.1967,-1.1966,-1.203,-1.2032,-1.2035,-1.2037,-1.1965,-1.1961,-1.1957,0,0,0,0,0,0,0,0,0,0,0,0,0,-1.2174,-1.2171,-1.2024,-1.2023,-1.2022,-1.1967,-1.1967,-1.1966,-1.2029,-1.2032,-1.2035,-1.2038,-1.1966,-1.1961,-1.1956,0,0,0,0,0,0,0,0,0,0,0,0,0,-1.2112,-1.217,-1.2024,-1.2048,-1.2049,-1.1968,-1.1967,-1.1966,-1.2029,-1.2032,-1.2036,-1.2039,-1.1968,-1.1962,-1.1956,-1.1843,0,0,-1.1936,-1.1934,0,0,0,0,0,0,0,0,-1.2115,-1.2106,-1.2045,-1.2046,-1.2048,-1.201,-1.1993,-1.1924,-1.2028,-1.2036,-1.2037,-1.2041,-1.1976,-1.1969,-1.195,-1.184,-1.1837,-1.1936,-1.1932,-1.1929,-1.1928,0,0,0,0,0,0,0,-1.212,-1.2109,-1.2001,-1.2044,-1.2046,-1.2057,-1.2053,-1.1981,-1.1985,-1.2036,-1.204,-1.2033,-1.1977,-1.1956,-1.1949,-1.1836,-1.1936,-1.193,-1.1927,-1.1924,-1.1628,-1.1624,0,0,0,0,0,0,-1.2123,-1.2112,-1.2003,-1.1999,-1.2092,-1.2052,-1.2046,-1.2018,-1.1987,-1.1986,-1.203,-1.2037,-1.1965,-1.1956,-1.1947,-1.181,-1.1929,-1.1923,-1.192,-1.1632,-1.1627,-1.1622,0,0,0,0,0,0,-1.2126,-1.2113,-1.2005,-1.2057,-1.2044,-1.2045,-1.2013,-1.2015,-1.1994,-1.1983,-1.1983,-1.2008,-1.1968,-1.1955,-1.1869,-1.1808,-1.1921,-1.1915,-1.1637,-1.163,-1.1625,-1.1537,0,0,0,0,0,0,-1.213,-1.2114,-1.2073,-1.2056,-1.2042,-1.1931,-1.2009,-1.2011,-1.1984,-1.1992,-1.1962,-1.1961,-1.1969,-1.1878,-1.1863,-1.1801,-1.191,-1.1642,-1.1634,-1.1627,-1.1545,-1.1528,-1.1514,0,0,0,0,0,-1.2135,-1.2048,-1.2071,-1.2057,-1.1992,-1.1928,-1.1919,-1.1935,-1.1979,-1.1936,-1.193,-1.1961,-1.1819,-1.1869,-1.1852,-1.1788,-1.1645,-1.1636,-1.1627,-1.1551,-1.1531,-1.1514,0,0,0,0,0,0,-1.2052,-1.2046,-1.2071,-1.1977,-1.1953,-1.1939,-1.1885,-1.1914,-1.1873,-1.1881,-1.1899,-1.1891,-1.1799,-1.1786,-1.1841,-1.1676,-1.1739,-1.1726,-1.1687,-1.1668,-1.1653,-1.1654,-1.1905,0,0,0,0,0,-1.2025,-1.1977,-1.1973,-1.1889,-1.1877,-1.1884,-1.1856,-1.1872,-1.1845,-1.1834,-1.1821,-1.1791,-1.1739,-1.1704,-1.1656,-1.1546,-1.1537,-1.1494,-1.1478,-1.1466,-1.1452,-1.1389,-1.1368,-1.1592,-1.1592,-1.1592,0,0,-1.1963,-1.1954,-1.1922,-1.1873,-1.1856,-1.1802,-1.1874,-1.1814,-1.1773,-1.1823,-1.1741,-1.1731,-1.1698,-1.1598,-1.1554,-1.1584,-1.1389,-1.1454,-1.1444,-1.1437,-1.1377,-1.1356,-1.1337,-1.1586,-1.1587,-1.1588,0,0,-1.1823,-1.1814,-1.1742,-1.1726,-1.1702,-1.1707,-1.169,-1.1673,-1.1669,-1.1589,-1.1625,-1.1575,-1.1487,-1.1461,-1.1436,-1.1291,-1.1316,-1.1275,-1.1191,-1.1129,-1.1112,-1.1096,-1.1038,-1.1018,-1.1263,-1.1262,-1.1262,0,-1.1747,-1.1672,-1.17,-1.1639,-1.1614,-1.1665,-1.1589,-1.157,-1.1529,-1.1509,-1.1547,-1.1437,-1.1419,-1.1312,-1.1277,-1.1258,-1.1234,-1.1274,-1.1113,-1.1098,-1.1083,-1.1028,-1.1007,-1.1257,-1.1258,-1.1258,-1.1259,0,-1.1579,-1.1526,-1.1471,-1.1435,-1.1405,-1.1337,-1.1351,-1.1317,-1.1336,-1.1336,-1.1251,-1.1233,-1.1181,-1.1159,-1.1175,-1.1053,-1.1073,-1.1112,-1.1173,-1.1056,-1.1004,-1.0984,-1.1249,-1.1251,-1.1253,-1.1254,0,0,-1.1376,-1.1363,-1.1341,-1.1325,-1.1304,-1.1261,-1.1195,-1.115,-1.1117,-1.1089,-1.1029,-1.0956,-1.0992,-1.0964,-1.0979,-1.0926,-1.0806,-1.0971,-1.097,-1.0935,-1.0665,-1.063,-1.0606,-1.0827,-1.0823,-1.082,-1.0665,0,-1.1232,-1.1121,-1.1146,-1.1033,-1.0983,-1.1032,-1.0974,-1.0952,-1.0952,-1.0905,-1.0904,-1.0849,-1.0905,-1.0888,-1.0838,-1.0831,-1.075,-1.0844,-1.0764,-1.0761,-1.0763,-1.058,-1.0543,-1.0398,-1.0646,-1.0643,-1.064,0,-1.1046,-1.1016,-1.09,-1.0888,-1.0867,-1.0815,-1.0774,-1.0732,-1.0708,-1.0711,-1.0683,-1.0708,-1.0637,-1.0707,-1.0606,-1.0669,-1.0639,-1.0631,-1.0626,-1.0612,-1.0688,-1.0555,-1.0353,-1.0328,-1.061,-1.0612,-1.0615,0,-1.0903,-1.0833,-1.0755,-1.074,-1.0726,-1.0687,-1.0678,-1.0659,-1.063,-1.0594,-1.0574,-1.053,-1.0503,-1.0466,-1.0477,-1.0528,-1.0372,-1.0443,-1.0367,-1.0366,-1.0324,-1.0325,-1.0108,-1.0318,-1.0318,-1.0319,-1.0319,0,-1.0734,-1.0659,-1.069,-1.064,-1.0558,-1.0588,-1.0503,-1.05,-1.0483,-1.043,-1.0472,-1.042,-1.0442,-1.039,-1.0399,-1.0311,-1.0301,-1.0297,-1.0298,-1.0289,-1.0288,-1.0263,-1.027,-1.0313,-1.0314,-1.0315,-1.0316,0,-1.0556,-1.0575,-1.0491,-1.0487,-1.0484,-1.0422,-1.0416,-1.0368,-1.0374,-1.0307,-1.0292,-1.0299,-1.0241,-1.0252,-1.0186,-1.0192,-1.0081,-1.0099,-1.0089,-1.009,-1.0011,-1.0015,-0.9763,-0.9729,-0.9968,-0.9966,-0.9964,0,-1.0443,-1.0387,-1.0379,-1.0349,-1.0339,-1.029,-1.0262,-1.029,-1.0258,-1.0229,-1.0182,-1.013,-1.0089,-0.9994,-0.9989,-0.9939,-0.9951,-0.9867,-0.9943,-0.9934,-0.9941,-0.9941,-0.9933,-0.9848,-0.9845,-0.9843,-0.9841,0,-1.0238,-1.0251,-1.0212,-1.0176,-1.0143,-1.0114,-1.0089,-1.0061,-1.0087,-1.0049,-0.9993,-0.9962,-0.9899,-0.9843,-0.9797,-0.9784,-0.9813,-0.9819,-0.9797,-0.9782,-0.9777,-0.9772,-1.004,-0.9822,-0.9824,-0.9826,-0.9827,-0.9827,-1.0084,-1.0036,-1.0023,-0.9977,-0.9964,-0.994,-0.9894,-0.9897,-0.9853,-0.9806,-0.9825,-0.976,-0.9737,-0.9679,-0.9661,-0.9607,-0.9638,-0.9608,-0.9599,-0.9589,-0.9576,-0.9793,-0.96,-0.96,-0.9601,-0.9601,-0.9602,0,-0.9875,-0.9871,-0.983,-0.9796,-0.9759,-0.9801,-0.9776,-0.974,-0.9684,-0.9664,-0.9624,-0.9559,-0.9506,-0.9501,-0.945,-0.9408,-0.942,-0.9393,-0.9391,-0.9387,-0.9555,-0.9576,-0.9383,-0.9383,-0.9384,-0.9384,-0.9384,-0.9384,-0.9761,-0.9682,-0.9694,-0.9607,-0.9602,-0.9542,-0.9524,-0.9501,-0.9484,-0.9411,-0.937,-0.937,-0.9353,-0.9302,-0.9255,-0.9254,-0.923,-0.9195,-0.9199,-0.9354,-0.9375,-0.9396,-0.9415,-0.9192,-0.9192,-0.9034,-0.9033,-0.9032]},{"header":{"parameterUnit":"m.s-1","parameterCategory":1,"la1":30.2991,"la2":30.254,"lo1":-89.0895,"lo2":-89.0444,"dy":0.0017,"dx":0.0017,"nx":28,"ny":28,"refTime":"2023-09-13T21:00:00:Z","depth":0,"parameterNumber":3,"parameterNumberName":"V-component_of_WINDS"},"data":[0,0,0,0,0,0,0,0,0,0,0,0,0,0,0,0,0,0,0,0,0,0,0,0,0,0,0,0,0,0,0,0,0,0,0,0,0,0,0,0,0,0,0,0,0,0,0,0,0,0,0,0,0,0,0,0,0,0,-1.2042,-1.2042,0,-1.2024,-1.2024,-1.2024,-1.2017,-1.2017,-1.2017,-1.2017,-1.1998,-1.1997,-1.1996,0,0,0,0,0,0,0,0,0,0,0,0,0,-1.207,-1.207,-1.2042,-1.2042,-1.2042,-1.2024,-1.2024,-1.2023,-1.2017,-1.2017,-1.2017,-1.2017,-1.1998,-1.1997,-1.1996,0,0,0,0,0,0,0,0,0,0,0,0,0,-1.2056,-1.207,-1.2042,-1.2037,-1.2036,-1.2024,-1.2024,-1.2023,-1.2017,-1.2017,-1.2017,-1.2017,-1.1998,-1.1997,-1.1996,-1.1989,0,0,-1.1993,-1.1993,0,0,0,0,0,0,0,0,-1.2057,-1.2055,-1.2038,-1.2037,-1.2036,-1.2023,-1.2026,-1.2012,-1.2017,-1.2024,-1.2017,-1.2017,-1.2006,-1.2004,-1.2001,-1.1988,-1.1987,-1.1993,-1.1993,-1.1992,-1.1992,0,0,0,0,0,0,0,-1.2058,-1.2056,-1.2035,-1.2037,-1.2036,-1.2034,-1.2032,-1.2024,-1.2015,-1.2024,-1.2023,-1.2021,-1.2005,-1.2001,-1.2,-1.1986,-1.1993,-1.1993,-1.1992,-1.1992,-1.1966,-1.1965,0,0,0,0,0,0,-1.206,-1.2056,-1.2036,-1.2034,-1.2047,-1.2034,-1.2032,-1.2027,-1.2015,-1.2013,-1.2021,-1.2021,-1.2003,-1.2001,-1.1999,-1.1989,-1.1992,-1.1992,-1.1991,-1.1966,-1.1965,-1.1965,0,0,0,0,0,0,-1.206,-1.2058,-1.2036,-1.2045,-1.2042,-1.2033,-1.2028,-1.2027,-1.2023,-1.2013,-1.2011,-1.2019,-1.2003,-1.2001,-1.1991,-1.1988,-1.1991,-1.199,-1.1966,-1.1966,-1.1965,-1.1969,0,0,0,0,0,0,-1.2061,-1.2058,-1.2056,-1.2045,-1.2042,-1.2029,-1.2028,-1.2026,-1.2021,-1.2021,-1.201,-1.2008,-1.2003,-1.1993,-1.199,-1.1987,-1.199,-1.1966,-1.1966,-1.1965,-1.1969,-1.1969,-1.1969,0,0,0,0,0,-1.2062,-1.2057,-1.2056,-1.2053,-1.2038,-1.2029,-1.2027,-1.2021,-1.2021,-1.2018,-1.2012,-1.2009,-1.1989,-1.1992,-1.1989,-1.1986,-1.1966,-1.1966,-1.1966,-1.1969,-1.1969,-1.1969,0,0,0,0,0,0,-1.2067,-1.2056,-1.2054,-1.2045,-1.2038,-1.2028,-1.2024,-1.2021,-1.2013,-1.2013,-1.2006,-1.2003,-1.1994,-1.1989,-1.1992,-1.1977,-1.1977,-1.1977,-1.1981,-1.1981,-1.198,-1.1982,-1.1989,0,0,0,0,0,-1.2067,-1.2061,-1.2051,-1.2044,-1.2041,-1.2033,-1.2028,-1.2025,-1.2017,-1.2013,-1.2006,-1.1998,-1.199,-1.1985,-1.1977,-1.1968,-1.1965,-1.1964,-1.1964,-1.1964,-1.1963,-1.1957,-1.1957,-1.1964,-1.1964,-1.1964,0,0,-1.2067,-1.206,-1.2057,-1.2045,-1.2039,-1.2032,-1.203,-1.2023,-1.2018,-1.2012,-1.2003,-1.1997,-1.1988,-1.1979,-1.1974,-1.1974,-1.1961,-1.1964,-1.1964,-1.1963,-1.1957,-1.1956,-1.1956,-1.1964,-1.1964,-1.1964,0,0,-1.2064,-1.2058,-1.2052,-1.2046,-1.2037,-1.2031,-1.203,-1.202,-1.2016,-1.2007,-1.2002,-1.1995,-1.1982,-1.1975,-1.197,-1.1964,-1.1961,-1.1961,-1.196,-1.1955,-1.1954,-1.1954,-1.1951,-1.195,-1.1961,-1.1961,-1.1961,0,-1.2065,-1.2054,-1.2049,-1.2042,-1.2036,-1.2031,-1.2025,-1.2019,-1.2008,-1.2004,-1.2004,-1.1987,-1.198,-1.1969,-1.1967,-1.1963,-1.1961,-1.1962,-1.1955,-1.1954,-1.1953,-1.1951,-1.195,-1.1961,-1.1961,-1.1961,-1.1961,0,-1.2056,-1.2049,-1.2045,-1.2034,-1.2029,-1.2022,-1.2014,-1.2009,-1.2006,-1.2,-1.199,-1.1982,-1.1972,-1.1969,-1.1966,-1.1957,-1.1957,-1.1956,-1.1956,-1.1953,-1.195,-1.1949,-1.1961,-1.1961,-1.1961,-1.1961,0,0,-1.2055,-1.2041,-1.204,-1.2035,-1.2024,-1.2018,-1.2011,-1.2002,-1.1997,-1.1989,-1.1983,-1.1971,-1.197,-1.1964,-1.196,-1.1955,-1.1949,-1.1954,-1.1954,-1.1953,-1.1939,-1.1939,-1.1938,-1.1947,-1.1947,-1.1947,-1.1939,0,-1.205,-1.2037,-1.2031,-1.202,-1.2013,-1.2008,-1.2002,-1.1994,-1.1989,-1.1982,-1.1976,-1.1967,-1.1967,-1.1963,-1.1958,-1.1951,-1.1946,-1.1952,-1.194,-1.194,-1.1942,-1.1937,-1.1938,-1.1931,-1.1938,-1.1938,-1.1938,0,-1.2042,-1.2034,-1.2023,-1.2013,-1.201,-1.2004,-1.1995,-1.1988,-1.1979,-1.1976,-1.1969,-1.1965,-1.1956,-1.1957,-1.1945,-1.1949,-1.1944,-1.194,-1.1939,-1.1937,-1.1939,-1.1935,-1.1929,-1.1928,-1.1936,-1.1936,-1.1937,0,-1.2042,-1.2029,-1.202,-1.2016,-1.2004,-1.2,-1.1995,-1.1986,-1.1981,-1.1973,-1.1969,-1.196,-1.1955,-1.1947,-1.194,-1.1942,-1.1929,-1.1929,-1.1925,-1.1925,-1.1922,-1.1922,-1.1915,-1.192,-1.192,-1.192,-1.192,0,-1.2036,-1.2029,-1.202,-1.2014,-1.2006,-1.2,-1.1992,-1.1986,-1.1979,-1.1972,-1.1967,-1.196,-1.1952,-1.1944,-1.1939,-1.1929,-1.1927,-1.1923,-1.1922,-1.1923,-1.1924,-1.192,-1.192,-1.1919,-1.1919,-1.1919,-1.1919,0,-1.2035,-1.2028,-1.2018,-1.2008,-1.2005,-1.2,-1.199,-1.1985,-1.1979,-1.197,-1.1968,-1.1959,-1.1949,-1.1942,-1.193,-1.1926,-1.1915,-1.1914,-1.1918,-1.1918,-1.1913,-1.1914,-1.1903,-1.1901,-1.1908,-1.1907,-1.1907,0,-1.2031,-1.2026,-1.2015,-1.201,-1.2005,-1.1997,-1.1992,-1.1985,-1.1979,-1.1969,-1.1964,-1.1954,-1.1946,-1.1931,-1.1923,-1.1914,-1.1912,-1.1908,-1.191,-1.1912,-1.1911,-1.1911,-1.191,-1.1908,-1.1908,-1.1908,-1.1908,0,-1.2026,-1.2023,-1.2016,-1.2007,-1.2,-1.1993,-1.1985,-1.1981,-1.1973,-1.1967,-1.1957,-1.1951,-1.1938,-1.1928,-1.1918,-1.1912,-1.1908,-1.1908,-1.1906,-1.1907,-1.191,-1.1908,-1.1917,-1.1908,-1.1908,-1.1908,-1.1908,-1.1908,-1.2023,-1.2018,-1.2009,-1.2001,-1.1995,-1.1988,-1.1982,-1.1975,-1.1967,-1.1957,-1.1953,-1.1943,-1.1934,-1.1919,-1.1913,-1.1905,-1.1904,-1.1902,-1.1902,-1.1901,-1.1901,-1.1912,-1.1903,-1.1903,-1.1903,-1.1903,-1.1903,0,-1.2017,-1.2012,-1.2004,-1.1993,-1.1987,-1.1984,-1.1976,-1.197,-1.1961,-1.1953,-1.1945,-1.1934,-1.1924,-1.1915,-1.1905,-1.19,-1.1898,-1.1897,-1.1897,-1.1896,-1.1902,-1.1904,-1.1899,-1.1899,-1.1899,-1.1899,-1.1899,-1.1899,-1.2013,-1.2004,-1.2,-1.1988,-1.1982,-1.1972,-1.1967,-1.196,-1.1954,-1.1941,-1.1933,-1.1928,-1.1919,-1.1908,-1.1899,-1.1897,-1.1893,-1.1893,-1.189,-1.1895,-1.1896,-1.1896,-1.1898,-1.1892,-1.1892,-1.1884,-1.1884,-1.1884]}]]